Time,TemperatureF,DewpointF,PressureIn,WindDirection,WindDirectionDegrees,WindSpeedMPH,WindSpeedGustMPH,Humidity,HourlyPrecipIn,Conditions,Clouds,dailyrainin,SoftwareType,DateUTC
2013-05-19 00:03:00,73.8,57.6,29.85,ENE,66,6.3,6.3,57,0.00,,,0.00,WeatherDisplay:10.36,2013-05-19 05:03:00,
2013-05-19 00:08:00,73.8,57.6,29.85,NE,43,0.0,0.0,57,0.00,,,0.00,WeatherDisplay:10.36,2013-05-19 05:08:00,
2013-05-19 00:13:00,73.8,57.6,29.85,NE,40,0.0,0.0,57,0.00,,,0.00,WeatherDisplay:10.36,2013-05-19 05:13:00,
2013-05-19 00:18:00,73.8,57.6,29.85,NE,34,3.6,0.0,57,0.00,,,0.00,WeatherDisplay:10.36,2013-05-19 05:18:00,
2013-05-19 00:23:00,73.6,57.9,29.85,NE,40,0.0,0.0,58,0.00,,,0.00,WeatherDisplay:10.36,2013-05-19 05:23:00,
2013-05-19 00:28:00,73.6,57.9,29.85,NNE,33,0.0,3.6,58,0.00,,,0.00,WeatherDisplay:10.36,2013-05-19 05:28:00,
2013-05-19 00:33:00,73.6,57.9,29.85,NE,45,4.0,4.0,58,0.00,,,0.00,WeatherDisplay:10.36,2013-05-19 05:33:00,
2013-05-19 00:38:00,73.6,58.4,29.85,NE,43,3.6,4.0,59,0.00,,,0.00,WeatherDisplay:10.36,2013-05-19 05:38:00,
2013-05-19 00:43:00,73.6,58.4,29.85,East,91,5.8,5.8,59,0.00,,,0.00,WeatherDisplay:10.36,2013-05-19 05:43:00,
2013-05-19 00:48:00,73.4,58.7,29.85,NE,53,4.6,4.6,60,0.00,,,0.00,WeatherDisplay:10.36,2013-05-19 05:48:00,
2013-05-19 00:53:00,73.4,58.7,29.85,East,94,3.6,3.6,60,0.00,,,0.00,WeatherDisplay:10.36,2013-05-19 05:53:00,
2013-05-19 00:58:00,73.4,58.7,29.85,NE,54,3.1,3.1,60,0.00,,,0.00,WeatherDisplay:10.36,2013-05-19 05:58:00,
2013-05-19 01:03:00,73.4,58.7,29.85,NE,44,3.6,6.7,60,0.00,,,0.00,WeatherDisplay:10.36,2013-05-19 06:03:00,
2013-05-19 01:08:00,73.6,58.8,29.85,NE,55,6.7,6.7,60,0.00,,,0.00,WeatherDisplay:10.36,2013-05-19 06:08:00,
2013-05-19 01:13:00,73.4,59.1,29.85,NE,48,6.9,6.9,61,0.00,,,0.00,WeatherDisplay:10.36,2013-05-19 06:13:00,
2013-05-19 01:18:00,73.6,59.3,29.85,NE,44,3.6,0.0,61,0.00,,,0.00,WeatherDisplay:10.36,2013-05-19 06:18:00,
2013-05-19 01:23:00,73.6,59.3,29.85,ENE,64,3.6,3.6,61,0.00,,,0.00,WeatherDisplay:10.36,2013-05-19 06:23:00,
2013-05-19 01:28:00,73.6,59.3,29.85,NE,55,3.6,3.6,61,0.00,,,0.00,WeatherDisplay:10.36,2013-05-19 06:28:00,
2013-05-19 01:33:00,73.6,59.3,29.85,East,87,2.7,4.9,61,0.00,,,0.00,WeatherDisplay:10.36,2013-05-19 06:33:00,
2013-05-19 01:38:00,73.4,59.1,29.85,East,80,0.0,0.0,61,0.00,,,0.00,WeatherDisplay:10.36,2013-05-19 06:38:00,
2013-05-19 01:43:00,73.4,59.1,29.85,NE,46,5.8,5.8,61,0.00,,,0.00,WeatherDisplay:10.36,2013-05-19 06:43:00,
2013-05-19 01:48:00,73.4,59.1,29.85,NE,36,0.0,2.7,61,0.00,,,0.00,WeatherDisplay:10.36,2013-05-19 06:48:00,
2013-05-19 01:53:00,73.4,59.1,29.85,NE,36,3.6,0.0,61,0.00,,,0.00,WeatherDisplay:10.36,2013-05-19 06:53:00,
2013-05-19 01:58:00,73.4,59.1,29.85,East,79,4.5,0.0,61,0.00,,,0.00,WeatherDisplay:10.36,2013-05-19 06:58:00,
2013-05-19 02:03:00,73.6,59.3,29.85,NE,40,4.0,0.0,61,0.00,,,0.00,WeatherDisplay:10.36,2013-05-19 07:03:00,
2013-05-19 02:08:00,73.6,59.8,29.85,ENE,69,3.6,3.6,62,0.00,,,0.00,WeatherDisplay:10.36,2013-05-19 07:08:00,
2013-05-19 02:13:00,73.6,59.8,29.85,East,80,3.6,3.6,62,0.00,,,0.00,WeatherDisplay:10.36,2013-05-19 07:13:00,
2013-05-19 02:18:00,73.6,59.8,29.85,NE,56,7.4,7.4,62,0.00,,,0.00,WeatherDisplay:10.36,2013-05-19 07:18:00,
2013-05-19 02:23:00,73.6,59.8,29.85,NE,35,0.0,0.0,62,0.00,,,0.00,WeatherDisplay:10.36,2013-05-19 07:23:00,
2013-05-19 02:28:00,73.6,59.8,29.85,NE,50,4.0,4.0,62,0.00,,,0.00,WeatherDisplay:10.36,2013-05-19 07:28:00,
2013-05-19 02:33:00,73.6,59.8,29.85,NE,42,10.4,10.4,62,0.00,,,0.00,WeatherDisplay:10.36,2013-05-19 07:33:00,
2013-05-19 02:38:00,73.6,59.8,29.85,ENE,58,0.0,0.0,62,0.00,,,0.00,WeatherDisplay:10.36,2013-05-19 07:38:00,
2013-05-19 02:43:00,73.4,59.6,29.85,ENE,72,4.0,4.0,62,0.00,,,0.00,WeatherDisplay:10.36,2013-05-19 07:43:00,
2013-05-19 02:48:00,73.4,59.6,29.85,NE,37,3.6,3.6,62,0.00,,,0.00,WeatherDisplay:10.36,2013-05-19 07:48:00,
2013-05-19 02:53:00,73.4,59.6,29.85,NE,52,5.8,5.8,62,0.00,,,0.00,WeatherDisplay:10.36,2013-05-19 07:53:00,
2013-05-19 02:58:00,73.4,59.6,29.85,NE,45,0.0,3.1,62,0.00,,,0.00,WeatherDisplay:10.36,2013-05-19 07:58:00,
2013-05-19 03:03:00,73.2,59.9,29.85,SSE,151,3.6,3.6,63,0.00,,,0.00,WeatherDisplay:10.36,2013-05-19 08:03:00,
2013-05-19 03:08:00,73.2,59.9,29.85,NE,54,2.7,2.7,63,0.00,,,0.00,WeatherDisplay:10.36,2013-05-19 08:08:00,
2013-05-19 03:13:00,73.2,59.9,29.85,NE,53,0.0,2.7,63,0.00,,,0.00,WeatherDisplay:10.36,2013-05-19 08:13:00,
2013-05-19 03:18:00,73.4,60.0,29.85,ENE,62,2.7,0.0,63,0.00,,,0.00,WeatherDisplay:10.36,2013-05-19 08:18:00,
2013-05-19 03:23:00,73.2,59.9,29.85,NE,42,0.0,0.0,63,0.00,,,0.00,WeatherDisplay:10.36,2013-05-19 08:23:00,
2013-05-19 03:28:00,73.2,59.9,29.85,NE,44,0.0,0.0,63,0.00,,,0.00,WeatherDisplay:10.36,2013-05-19 08:28:00,
2013-05-19 03:33:00,73.2,59.9,29.85,NE,52,3.1,0.0,63,0.00,,,0.00,WeatherDisplay:10.36,2013-05-19 08:33:00,
2013-05-19 03:38:00,73.2,59.9,29.85,ENE,58,0.0,0.0,63,0.00,,,0.00,WeatherDisplay:10.36,2013-05-19 08:38:00,
2013-05-19 03:43:00,73.2,59.9,29.85,East,92,6.9,6.9,63,0.00,,,0.00,WeatherDisplay:10.36,2013-05-19 08:43:00,
2013-05-19 03:48:00,73.0,59.7,29.85,ENE,70,0.0,0.0,63,0.00,,,0.00,WeatherDisplay:10.36,2013-05-19 08:48:00,
2013-05-19 03:53:00,73.0,60.1,29.85,East,91,0.0,0.0,64,0.00,,,0.00,WeatherDisplay:10.36,2013-05-19 08:53:00,
2013-05-19 03:58:00,72.9,60.0,29.85,NE,48,0.0,2.7,64,0.00,,,0.00,WeatherDisplay:10.36,2013-05-19 08:58:00,
2013-05-19 04:03:00,72.9,60.0,29.85,NE,49,0.0,0.0,64,0.00,,,0.00,WeatherDisplay:10.36,2013-05-19 09:03:00,
2013-05-19 04:08:00,72.9,60.0,29.85,NNE,31,0.0,0.0,64,0.00,,,0.00,WeatherDisplay:10.36,2013-05-19 09:08:00,
2013-05-19 04:13:00,72.7,59.8,29.85,NNE,33,0.0,0.0,64,0.00,,,0.00,WeatherDisplay:10.36,2013-05-19 09:13:00,
2013-05-19 04:18:00,72.7,59.8,29.85,NE,38,0.0,0.0,64,0.00,,,0.00,WeatherDisplay:10.36,2013-05-19 09:18:00,
2013-05-19 04:23:00,72.7,59.8,29.85,NE,39,0.0,0.0,64,0.00,,,0.00,WeatherDisplay:10.36,2013-05-19 09:23:00,
2013-05-19 04:28:00,72.5,59.6,29.85,NE,53,0.0,0.0,64,0.00,,,0.00,WeatherDisplay:10.36,2013-05-19 09:28:00,
2013-05-19 04:33:00,72.3,59.9,29.85,NE,53,0.0,0.0,65,0.00,,,0.00,WeatherDisplay:10.36,2013-05-19 09:33:00,
2013-05-19 04:38:00,72.3,59.9,29.85,NE,42,3.5,3.5,65,0.00,,,0.00,WeatherDisplay:10.36,2013-05-19 09:38:00,
2013-05-19 04:43:00,72.3,60.3,29.85,ENE,75,0.0,0.0,66,0.00,,,0.00,WeatherDisplay:10.36,2013-05-19 09:43:00,
2013-05-19 04:48:00,72.3,60.3,29.85,ENE,73,0.0,0.0,66,0.00,,,0.00,WeatherDisplay:10.36,2013-05-19 09:48:00,
2013-05-19 04:53:00,72.3,60.3,29.82,NNE,32,0.0,0.0,66,0.00,,,0.00,WeatherDisplay:10.36,2013-05-19 09:53:00,
2013-05-19 04:58:00,72.1,60.2,29.82,NNE,30,0.0,0.0,66,0.00,,,0.00,WeatherDisplay:10.36,2013-05-19 09:58:00,
2013-05-19 05:03:00,72.1,60.6,29.82,NNE,30,0.0,0.0,67,0.00,,,0.00,WeatherDisplay:10.36,2013-05-19 10:03:00,
2013-05-19 05:08:00,72.0,60.4,29.82,NNE,31,0.0,0.0,67,0.00,,,0.00,WeatherDisplay:10.36,2013-05-19 10:08:00,
2013-05-19 05:17:00,72.0,60.8,29.82,NNE,30,0.0,0.0,68,0.00,,,0.00,WeatherDisplay:10.36,2013-05-19 10:17:00,
2013-05-19 05:22:00,72.0,60.8,29.82,NNE,31,0.0,0.0,68,0.00,,,0.00,WeatherDisplay:10.36,2013-05-19 10:22:00,
2013-05-19 05:27:00,72.0,60.8,29.82,NNE,30,0.0,0.0,68,0.00,,,0.00,WeatherDisplay:10.36,2013-05-19 10:27:00,
2013-05-19 05:32:00,72.0,60.8,29.82,NE,43,5.4,5.4,68,0.00,,,0.00,WeatherDisplay:10.36,2013-05-19 10:32:00,
2013-05-19 05:37:00,72.0,60.8,29.82,ENE,63,4.6,4.6,68,0.00,,,0.00,WeatherDisplay:10.36,2013-05-19 10:37:00,
2013-05-19 05:42:00,72.0,60.8,29.82,NE,52,4.0,4.0,68,0.00,,,0.00,WeatherDisplay:10.36,2013-05-19 10:42:00,
2013-05-19 05:47:00,72.0,60.8,29.82,NE,49,3.6,0.0,68,0.00,,,0.00,WeatherDisplay:10.36,2013-05-19 10:47:00,
2013-05-19 05:53:00,72.1,61.0,29.82,ENE,67,0.0,0.0,68,0.00,,,0.00,WeatherDisplay:10.36,2013-05-19 10:53:00,
2013-05-19 05:58:00,72.1,61.0,29.82,NE,40,3.6,3.6,68,0.00,,,0.00,WeatherDisplay:10.36,2013-05-19 10:58:00,
2013-05-19 06:03:00,72.1,61.0,29.82,NE,43,0.0,0.0,68,0.00,,,0.00,WeatherDisplay:10.36,2013-05-19 11:03:00,
2013-05-19 06:08:00,72.1,61.0,29.82,NE,51,3.6,0.0,68,0.00,,,0.00,WeatherDisplay:10.36,2013-05-19 11:08:00,
2013-05-19 06:13:00,72.1,61.0,29.82,NE,44,0.0,0.0,68,0.00,,,0.00,WeatherDisplay:10.36,2013-05-19 11:13:00,
2013-05-19 06:19:00,72.0,60.8,29.82,NE,44,0.0,0.0,68,0.00,,,0.00,WeatherDisplay:10.36,2013-05-19 11:19:00,
2013-05-19 06:24:00,72.0,61.2,29.82,NE,43,0.0,0.0,69,0.00,,,0.00,WeatherDisplay:10.36,2013-05-19 11:24:00,
2013-05-19 06:29:00,71.8,61.1,29.82,NE,43,0.0,0.0,69,0.00,,,0.00,WeatherDisplay:10.36,2013-05-19 11:29:00,
2013-05-19 06:34:00,71.6,61.3,29.82,ENE,60,0.0,0.0,70,0.00,,,0.00,WeatherDisplay:10.36,2013-05-19 11:34:00,
2013-05-19 06:39:00,71.6,61.3,29.79,ENE,60,0.0,0.0,70,0.00,,,0.00,WeatherDisplay:10.36,2013-05-19 11:39:00,
2013-05-19 06:44:00,71.6,61.3,29.79,NE,56,0.0,0.0,70,0.00,,,0.00,WeatherDisplay:10.36,2013-05-19 11:44:00,
2013-05-19 06:49:00,71.4,61.1,29.79,NNE,30,2.7,0.0,70,0.00,,,0.00,WeatherDisplay:10.36,2013-05-19 11:49:00,
2013-05-19 06:54:00,71.4,61.5,29.79,NNE,30,0.0,0.0,71,0.00,,,0.00,WeatherDisplay:10.36,2013-05-19 11:54:00,
2013-05-19 06:59:00,71.2,61.4,29.79,NNE,29,0.0,0.0,71,0.00,,,0.00,WeatherDisplay:10.36,2013-05-19 11:59:00,
2013-05-19 07:04:00,71.2,61.7,29.79,NNE,29,0.0,0.0,72,0.00,,,0.00,WeatherDisplay:10.36,2013-05-19 12:04:00,
2013-05-19 07:09:00,71.2,61.7,29.82,NNE,29,0.0,0.0,72,0.00,,,0.00,WeatherDisplay:10.36,2013-05-19 12:09:00,
2013-05-19 07:14:00,71.2,62.1,29.82,NNE,29,0.0,0.0,73,0.00,,,0.00,WeatherDisplay:10.36,2013-05-19 12:14:00,
2013-05-19 07:19:00,71.6,62.5,29.82,NNE,29,0.0,0.0,73,0.00,,,0.00,WeatherDisplay:10.36,2013-05-19 12:19:00,
2013-05-19 07:25:00,71.6,62.1,29.82,WNW,292,5.8,5.8,72,0.00,,,0.00,WeatherDisplay:10.36,2013-05-19 12:25:00,
2013-05-19 07:30:00,71.2,62.1,29.82,NNE,30,0.0,0.0,73,0.00,,,0.00,WeatherDisplay:10.36,2013-05-19 12:30:00,
2013-05-19 07:35:00,71.4,62.3,29.82,NNE,30,0.0,0.0,73,0.00,,,0.00,WeatherDisplay:10.36,2013-05-19 12:35:00,
2013-05-19 07:40:00,71.6,62.9,29.82,NNE,27,3.6,0.0,74,0.00,,,0.00,WeatherDisplay:10.36,2013-05-19 12:40:00,
2013-05-19 07:45:00,71.8,62.7,29.82,NNE,27,3.5,0.0,73,0.00,,,0.00,WeatherDisplay:10.36,2013-05-19 12:45:00,
2013-05-19 07:50:00,71.8,62.7,29.82,NNE,27,0.0,0.0,73,0.00,,,0.00,WeatherDisplay:10.36,2013-05-19 12:50:00,
2013-05-19 07:55:00,72.3,63.6,29.82,NNE,27,0.0,0.0,74,0.00,,,0.00,WeatherDisplay:10.36,2013-05-19 12:55:00,
2013-05-19 08:00:00,73.0,63.9,29.82,NNE,27,0.0,0.0,73,0.00,,,0.00,WeatherDisplay:10.36,2013-05-19 13:00:00,
2013-05-19 08:05:00,73.6,64.0,29.82,NNE,27,0.0,0.0,72,0.00,,,0.00,WeatherDisplay:10.36,2013-05-19 13:05:00,
2013-05-19 08:10:00,73.8,63.4,29.82,NNE,27,0.0,0.0,70,0.00,,,0.00,WeatherDisplay:10.36,2013-05-19 13:10:00,
2013-05-19 08:15:00,73.8,63.0,29.82,NNE,27,0.0,0.0,69,0.00,,,0.00,WeatherDisplay:10.36,2013-05-19 13:15:00,
2013-05-19 08:20:00,73.8,63.0,29.82,NNE,27,3.6,0.0,69,0.00,,,0.00,WeatherDisplay:10.36,2013-05-19 13:20:00,
2013-05-19 08:25:00,73.9,63.1,29.82,NNE,27,0.0,0.0,69,0.00,,,0.00,WeatherDisplay:10.36,2013-05-19 13:25:00,
2013-05-19 08:30:00,73.9,63.1,29.82,NE,44,3.5,3.5,69,0.00,,,0.00,WeatherDisplay:10.36,2013-05-19 13:30:00,
2013-05-19 08:35:00,74.3,63.5,29.82,NE,44,0.0,0.0,69,0.00,,,0.00,WeatherDisplay:10.36,2013-05-19 13:35:00,
2013-05-19 08:40:00,74.5,63.6,29.82,NE,49,0.0,0.0,69,0.00,,,0.00,WeatherDisplay:10.36,2013-05-19 13:40:00,
2013-05-19 08:45:00,75.0,64.2,29.82,NE,48,4.5,4.5,69,0.00,,,0.00,WeatherDisplay:10.36,2013-05-19 13:45:00,
2013-05-19 08:50:00,75.2,64.3,29.85,NE,51,4.9,0.0,69,0.00,,,0.00,WeatherDisplay:10.36,2013-05-19 13:50:00,
2013-05-19 08:55:00,75.4,64.5,29.85,NE,49,6.3,6.3,69,0.00,,,0.00,WeatherDisplay:10.36,2013-05-19 13:55:00,
2013-05-19 09:00:00,75.6,64.7,29.85,ESE,119,5.8,5.8,69,0.00,,,0.00,WeatherDisplay:10.36,2013-05-19 14:00:00,
2013-05-19 09:05:00,75.7,64.4,29.85,ESE,108,5.8,5.8,68,0.00,,,0.00,WeatherDisplay:10.36,2013-05-19 14:05:00,
2013-05-19 09:10:00,75.9,64.6,29.85,ENE,75,4.6,4.6,68,0.00,,,0.00,WeatherDisplay:10.36,2013-05-19 14:10:00,
2013-05-19 09:15:00,75.9,64.6,29.85,ENE,65,5.8,5.8,68,0.00,,,0.00,WeatherDisplay:10.36,2013-05-19 14:15:00,
2013-05-19 09:20:00,76.1,64.8,29.85,ENE,60,6.3,6.3,68,0.00,,,0.00,WeatherDisplay:10.36,2013-05-19 14:20:00,
2013-05-19 09:25:00,76.3,64.5,29.88,ENE,67,6.9,6.9,67,0.00,,,0.00,WeatherDisplay:10.36,2013-05-19 14:25:00,
2013-05-19 09:30:00,76.6,65.3,29.88,NE,41,4.6,4.6,68,0.00,,,0.00,WeatherDisplay:10.36,2013-05-19 14:30:00,
2013-05-19 09:35:00,77.2,65.8,29.85,NE,54,6.3,6.3,68,0.00,,,0.00,WeatherDisplay:10.36,2013-05-19 14:35:00,
2013-05-19 09:40:00,77.5,65.7,29.85,ENE,77,10.5,10.5,67,0.00,,,0.00,WeatherDisplay:10.36,2013-05-19 14:40:00,
2013-05-19 09:45:00,78.1,66.2,29.85,ENE,57,4.9,4.9,67,0.00,,,0.00,WeatherDisplay:10.36,2013-05-19 14:45:00,
2013-05-19 09:50:00,78.4,66.1,29.85,NE,54,10.4,10.4,66,0.00,,,0.00,WeatherDisplay:10.36,2013-05-19 14:50:00,
2013-05-19 09:55:00,78.8,66.0,29.85,NE,52,8.1,8.1,65,0.00,,,0.00,WeatherDisplay:10.36,2013-05-19 14:55:00,
2013-05-19 10:00:00,79.2,66.4,29.85,NE,46,5.8,5.8,65,0.00,,,0.00,WeatherDisplay:10.36,2013-05-19 15:00:00,
2013-05-19 10:05:00,79.3,65.6,29.85,ENE,76,5.8,5.8,63,0.00,,,0.00,WeatherDisplay:10.36,2013-05-19 15:05:00,
2013-05-19 10:10:00,79.0,65.3,29.85,NE,45,8.1,8.1,63,0.00,,,0.00,WeatherDisplay:10.36,2013-05-19 15:10:00,
2013-05-19 10:15:00,78.6,65.0,29.85,NE,48,4.9,4.9,63,0.00,,,0.00,WeatherDisplay:10.36,2013-05-19 15:15:00,
2013-05-19 10:20:00,78.4,65.2,29.85,ENE,77,4.9,4.9,64,0.00,,,0.00,WeatherDisplay:10.36,2013-05-19 15:20:00,
2013-05-19 10:25:00,78.3,65.1,29.85,NE,47,5.8,5.8,64,0.00,,,0.00,WeatherDisplay:10.36,2013-05-19 15:25:00,
2013-05-19 10:30:00,78.3,65.1,29.85,ENE,62,9.2,9.2,64,0.00,,,0.00,WeatherDisplay:10.36,2013-05-19 15:30:00,
2013-05-19 10:35:00,78.1,64.9,29.85,ENE,62,4.5,0.0,64,0.00,,,0.00,WeatherDisplay:10.36,2013-05-19 15:35:00,
2013-05-19 10:40:00,78.3,65.1,29.85,NE,52,10.5,10.5,64,0.00,,,0.00,WeatherDisplay:10.36,2013-05-19 15:40:00,
2013-05-19 10:45:00,78.4,65.2,29.85,NE,54,5.8,5.8,64,0.00,,,0.00,WeatherDisplay:10.36,2013-05-19 15:45:00,
2013-05-19 10:50:00,78.6,65.4,29.85,NE,45,3.5,0.0,64,0.00,,,0.00,WeatherDisplay:10.36,2013-05-19 15:50:00,
2013-05-19 10:55:00,78.6,65.4,29.82,NE,52,2.7,0.0,64,0.00,,,0.00,WeatherDisplay:10.36,2013-05-19 15:55:00,
2013-05-19 11:00:00,78.8,65.6,29.82,NE,42,3.5,0.0,64,0.00,,,0.00,WeatherDisplay:10.36,2013-05-19 16:00:00,
2013-05-19 11:05:00,79.0,65.8,29.82,NE,44,3.5,0.0,64,0.00,,,0.00,WeatherDisplay:10.36,2013-05-19 16:05:00,
2013-05-19 11:10:00,79.5,66.3,29.82,NE,44,2.7,0.0,64,0.00,,,0.00,WeatherDisplay:10.36,2013-05-19 16:10:00,
2013-05-19 11:15:00,79.9,66.2,29.82,ENE,68,3.5,0.0,63,0.00,,,0.00,WeatherDisplay:10.36,2013-05-19 16:15:00,
2013-05-19 11:20:00,80.1,65.9,29.82,ENE,60,0.0,0.0,62,0.00,,,0.00,WeatherDisplay:10.36,2013-05-19 16:20:00,
2013-05-19 11:25:00,79.9,65.7,29.79,NNE,27,0.0,0.0,62,0.00,,,0.00,WeatherDisplay:10.36,2013-05-19 16:25:00,
2013-05-19 11:30:00,79.7,65.5,29.79,NNE,31,0.0,0.0,62,0.00,,,0.00,WeatherDisplay:10.36,2013-05-19 16:30:00,
2013-05-19 11:35:00,79.5,65.8,29.79,NE,49,0.0,0.0,63,0.00,,,0.00,WeatherDisplay:10.36,2013-05-19 16:35:00,
2013-05-19 11:40:00,79.5,65.8,29.79,ENE,70,0.0,0.0,63,0.00,,,0.00,WeatherDisplay:10.36,2013-05-19 16:40:00,
2013-05-19 11:45:00,79.3,65.6,29.79,NNE,31,0.0,0.0,63,0.00,,,0.00,WeatherDisplay:10.36,2013-05-19 16:45:00,
2013-05-19 11:50:00,79.2,65.5,29.79,NNE,33,0.0,0.0,63,0.00,,,0.00,WeatherDisplay:10.36,2013-05-19 16:50:00,
2013-05-19 11:55:00,79.0,65.3,29.79,ENE,63,3.5,3.5,63,0.00,,,0.00,WeatherDisplay:10.36,2013-05-19 16:55:00,
2013-05-19 12:00:00,78.8,65.6,29.79,NE,50,5.8,5.8,64,0.00,,,0.00,WeatherDisplay:10.36,2013-05-19 17:00:00,
2013-05-19 12:05:00,78.4,65.7,29.79,NE,42,4.6,4.6,65,0.00,,,0.00,WeatherDisplay:10.36,2013-05-19 17:05:00,
2013-05-19 12:10:00,78.3,66.0,29.79,NE,39,4.5,0.0,66,0.00,,,0.00,WeatherDisplay:10.36,2013-05-19 17:10:00,
2013-05-19 12:15:00,78.4,66.6,29.79,NE,46,3.1,0.0,67,0.00,,,0.00,WeatherDisplay:10.36,2013-05-19 17:15:00,
2013-05-19 12:20:00,78.8,66.9,29.79,NE,52,4.6,4.6,67,0.00,,,0.00,WeatherDisplay:10.36,2013-05-19 17:20:00,
2013-05-19 12:25:00,79.2,67.3,29.79,ENE,66,4.5,4.5,67,0.00,,,0.00,WeatherDisplay:10.36,2013-05-19 17:25:00,
2013-05-19 12:30:00,79.5,67.2,29.79,NE,43,8.1,8.1,66,0.00,,,0.00,WeatherDisplay:10.36,2013-05-19 17:30:00,
2013-05-19 12:35:00,80.2,67.4,29.79,NE,53,3.5,3.5,65,0.00,,,0.00,WeatherDisplay:10.36,2013-05-19 17:35:00,
2013-05-19 12:40:00,80.6,66.8,29.79,NE,40,6.7,6.7,63,0.00,,,0.00,WeatherDisplay:10.36,2013-05-19 17:40:00,
2013-05-19 12:45:00,81.0,66.7,29.79,NE,43,5.8,5.8,62,0.00,,,0.00,WeatherDisplay:10.36,2013-05-19 17:45:00,
2013-05-19 12:50:00,81.5,66.8,29.79,ENE,77,6.7,6.7,61,0.00,,,0.00,WeatherDisplay:10.36,2013-05-19 17:50:00,
2013-05-19 12:55:00,81.7,66.0,29.76,NNE,30,9.2,9.2,59,0.00,,,0.00,WeatherDisplay:10.36,2013-05-19 17:55:00,
2013-05-19 13:00:00,81.7,66.0,29.76,NE,37,4.9,4.9,59,0.00,,,0.00,WeatherDisplay:10.36,2013-05-19 18:00:00,
2013-05-19 13:05:00,81.9,66.1,29.76,NNE,32,3.5,3.5,59,0.00,,,0.00,WeatherDisplay:10.36,2013-05-19 18:05:00,
2013-05-19 13:10:00,81.9,66.1,29.76,NNE,31,9.6,9.6,59,0.00,,,0.00,WeatherDisplay:10.36,2013-05-19 18:10:00,
2013-05-19 13:15:00,82.0,66.3,29.76,NE,42,10.4,10.4,59,0.00,,,0.00,WeatherDisplay:10.36,2013-05-19 18:15:00,
2013-05-19 13:20:00,82.2,66.5,29.76,NE,39,5.8,5.8,59,0.00,,,0.00,WeatherDisplay:10.36,2013-05-19 18:20:00,
2013-05-19 13:25:00,82.8,66.0,29.76,NE,43,9.6,9.6,57,0.00,,,0.00,WeatherDisplay:10.36,2013-05-19 18:25:00,
2013-05-19 13:30:00,83.3,66.5,29.76,East,81,6.3,6.3,57,0.00,,,0.00,WeatherDisplay:10.36,2013-05-19 18:30:00,
2013-05-19 13:35:00,83.8,65.9,29.76,NNE,32,5.4,5.4,55,0.00,,,0.00,WeatherDisplay:10.36,2013-05-19 18:35:00,
2013-05-19 13:40:00,84.0,65.0,29.76,NE,34,6.3,6.3,53,0.00,,,0.00,WeatherDisplay:10.36,2013-05-19 18:40:00,
2013-05-19 13:45:00,84.2,64.7,29.76,ENE,57,8.1,8.1,52,0.00,,,0.00,WeatherDisplay:10.36,2013-05-19 18:45:00,
2013-05-19 13:50:00,84.4,63.7,29.73,NE,52,8.7,8.7,50,0.00,,,0.00,WeatherDisplay:10.36,2013-05-19 18:50:00,
2013-05-19 13:55:00,84.4,63.1,29.73,NE,44,9.2,9.2,49,0.00,,,0.00,WeatherDisplay:10.36,2013-05-19 18:55:00,
2013-05-19 14:00:00,84.4,63.7,29.73,NE,35,4.6,4.6,50,0.00,,,0.00,WeatherDisplay:10.36,2013-05-19 19:00:00,
2013-05-19 14:05:00,84.6,64.4,29.73,NNE,31,4.6,4.6,51,0.00,,,0.00,WeatherDisplay:10.36,2013-05-19 19:05:00,
2013-05-19 14:10:00,84.6,65.0,29.73,NE,42,6.9,6.9,52,0.00,,,0.00,WeatherDisplay:10.36,2013-05-19 19:10:00,
2013-05-19 14:15:00,84.6,65.5,29.73,NE,53,6.3,6.3,53,0.00,,,0.00,WeatherDisplay:10.36,2013-05-19 19:15:00,
2013-05-19 14:20:00,84.7,65.7,29.73,NE,38,4.6,4.6,53,0.00,,,0.00,WeatherDisplay:10.36,2013-05-19 19:20:00,
2013-05-19 14:25:00,84.9,65.9,29.73,NNE,30,4.6,4.6,53,0.00,,,0.00,WeatherDisplay:10.36,2013-05-19 19:25:00,
2013-05-19 14:30:00,84.9,65.3,29.73,NNE,27,4.6,4.6,52,0.00,,,0.00,WeatherDisplay:10.36,2013-05-19 19:30:00,
2013-05-19 14:35:00,84.7,65.7,29.73,NNE,31,5.8,0.0,53,0.00,,,0.00,WeatherDisplay:10.36,2013-05-19 19:35:00,
2013-05-19 14:40:00,84.7,65.7,29.73,NNE,30,5.8,5.8,53,0.00,,,0.00,WeatherDisplay:10.36,2013-05-19 19:40:00,
2013-05-19 14:45:00,84.9,65.9,29.73,NNE,30,5.4,5.4,53,0.00,,,0.00,WeatherDisplay:10.36,2013-05-19 19:45:00,
2013-05-19 14:50:00,84.9,65.9,29.73,NE,45,6.9,0.0,53,0.00,,,0.00,WeatherDisplay:10.36,2013-05-19 19:50:00,
2013-05-19 14:56:00,85.3,65.7,29.73,NE,34,5.8,5.8,52,0.00,,,0.00,WeatherDisplay:10.36,2013-05-19 19:56:00,
2013-05-19 15:01:00,85.5,65.3,29.73,NE,44,5.8,5.8,51,0.00,,,0.00,WeatherDisplay:10.36,2013-05-19 20:01:00,
2013-05-19 15:06:00,85.8,65.6,29.70,NE,45,4.5,4.5,51,0.00,,,0.00,WeatherDisplay:10.36,2013-05-19 20:06:00,
2013-05-19 15:11:00,85.8,65.0,29.70,NE,43,10.5,10.5,50,0.00,,,0.00,WeatherDisplay:10.36,2013-05-19 20:11:00,
2013-05-19 15:16:00,86.0,65.2,29.70,NE,41,3.6,3.6,50,0.00,,,0.00,WeatherDisplay:10.36,2013-05-19 20:16:00,
2013-05-19 15:21:00,86.0,64.6,29.70,NE,50,5.4,5.4,49,0.00,,,0.00,WeatherDisplay:10.36,2013-05-19 20:21:00,
2013-05-19 15:26:00,86.2,64.8,29.70,NE,52,6.3,6.3,49,0.00,,,0.00,WeatherDisplay:10.36,2013-05-19 20:26:00,
2013-05-19 15:31:00,86.4,63.1,29.70,NE,55,6.9,6.9,46,0.00,,,0.00,WeatherDisplay:10.36,2013-05-19 20:31:00,
2013-05-19 15:36:00,86.5,61.4,29.70,NE,46,11.6,11.6,43,0.00,,,0.00,WeatherDisplay:10.36,2013-05-19 20:36:00,
2013-05-19 15:41:00,86.9,61.0,29.70,NE,48,6.9,6.9,42,0.00,,,0.00,WeatherDisplay:10.36,2013-05-19 20:41:00,
2013-05-19 15:46:00,87.1,59.8,29.70,NE,42,14.7,14.7,40,0.00,,,0.00,WeatherDisplay:10.36,2013-05-19 20:46:00,
2013-05-19 15:51:00,87.1,60.5,29.70,NE,47,8.3,8.3,41,0.00,,,0.00,WeatherDisplay:10.36,2013-05-19 20:51:00,
2013-05-19 15:56:00,87.3,61.4,29.70,NE,46,10.4,10.4,42,0.00,,,0.00,WeatherDisplay:10.36,2013-05-19 20:56:00,
2013-05-19 16:01:00,87.4,61.5,29.70,ENE,61,9.6,9.6,42,0.00,,,0.00,WeatherDisplay:10.36,2013-05-19 21:01:00,
2013-05-19 16:06:00,87.6,61.0,29.70,NE,43,10.4,10.4,41,0.00,,,0.00,WeatherDisplay:10.36,2013-05-19 21:06:00,
2013-05-19 16:11:00,88.2,61.5,29.70,NE,39,7.8,7.8,41,0.00,,,0.00,WeatherDisplay:10.36,2013-05-19 21:11:00,
2013-05-19 16:16:00,88.2,60.8,29.70,ENE,63,8.3,8.3,40,0.00,,,0.00,WeatherDisplay:10.36,2013-05-19 21:16:00,
2013-05-19 16:21:00,88.2,59.4,29.67,NE,41,9.2,9.2,38,0.00,,,0.00,WeatherDisplay:10.36,2013-05-19 21:21:00,
2013-05-19 16:26:00,88.0,59.9,29.67,ENE,73,9.2,9.2,39,0.00,,,0.00,WeatherDisplay:10.36,2013-05-19 21:26:00,
2013-05-19 16:31:00,88.0,59.2,29.67,NE,42,10.1,10.1,38,0.00,,,0.00,WeatherDisplay:10.36,2013-05-19 21:31:00,
2013-05-19 16:36:00,88.0,59.2,29.67,NE,47,8.3,8.3,38,0.00,,,0.00,WeatherDisplay:10.36,2013-05-19 21:36:00,
2013-05-19 16:41:00,88.2,57.1,29.67,NE,45,10.5,10.5,35,0.00,,,0.00,WeatherDisplay:10.36,2013-05-19 21:41:00,
2013-05-19 16:46:00,88.0,56.9,29.67,NE,42,11.5,11.5,35,0.00,,,0.00,WeatherDisplay:10.36,2013-05-19 21:46:00,
2013-05-19 16:51:00,87.8,57.5,29.67,NE,43,9.2,9.2,36,0.00,,,0.00,WeatherDisplay:10.36,2013-05-19 21:51:00,
2013-05-19 16:56:00,87.8,57.5,29.67,ENE,64,6.9,6.9,36,0.00,,,0.00,WeatherDisplay:10.36,2013-05-19 21:56:00,
2013-05-19 17:01:00,87.8,58.3,29.67,SE,134,9.6,9.6,37,0.00,,,0.00,WeatherDisplay:10.36,2013-05-19 22:01:00,
2013-05-19 17:06:00,87.8,58.3,29.64,NE,56,9.6,9.6,37,0.00,,,0.00,WeatherDisplay:10.36,2013-05-19 22:06:00,
2013-05-19 17:11:00,87.8,58.3,29.64,NE,41,14.7,14.7,37,0.00,,,0.00,WeatherDisplay:10.36,2013-05-19 22:11:00,
2013-05-19 17:16:00,87.8,58.3,29.64,NE,45,6.9,6.9,37,0.00,,,0.00,WeatherDisplay:10.36,2013-05-19 22:16:00,
2013-05-19 17:21:00,87.8,58.3,29.64,NE,42,10.1,10.1,37,0.00,,,0.00,WeatherDisplay:10.36,2013-05-19 22:21:00,
2013-05-19 17:26:00,87.8,58.3,29.64,NE,50,13.9,13.9,37,0.00,,,0.00,WeatherDisplay:10.36,2013-05-19 22:26:00,
2013-05-19 17:31:00,87.8,59.0,29.64,NNE,33,10.1,10.1,38,0.00,,,0.00,WeatherDisplay:10.36,2013-05-19 22:31:00,
2013-05-19 17:36:00,87.8,59.0,29.64,ENE,63,13.0,13.0,38,0.00,,,0.00,WeatherDisplay:10.36,2013-05-19 22:36:00,
2013-05-19 17:41:00,87.8,59.0,29.64,NE,43,10.5,10.5,38,0.00,,,0.00,WeatherDisplay:10.36,2013-05-19 22:41:00,
2013-05-19 17:46:00,87.6,58.9,29.64,NE,53,10.1,10.1,38,0.00,,,0.00,WeatherDisplay:10.36,2013-05-19 22:46:00,
2013-05-19 17:51:00,87.6,58.9,29.64,ENE,75,11.5,11.5,38,0.00,,,0.00,WeatherDisplay:10.36,2013-05-19 22:51:00,
2013-05-19 17:56:00,87.6,58.9,29.64,NE,42,8.1,8.1,38,0.00,,,0.00,WeatherDisplay:10.36,2013-05-19 22:56:00,
2013-05-19 18:01:00,87.6,58.9,29.64,NE,36,9.2,9.2,38,0.00,,,0.00,WeatherDisplay:10.36,2013-05-19 23:01:00,
2013-05-19 18:06:00,87.6,59.6,29.64,NE,47,6.3,6.3,39,0.00,,,0.00,WeatherDisplay:10.36,2013-05-19 23:06:00,
2013-05-19 18:11:00,87.4,58.7,29.64,NE,41,9.2,9.2,38,0.00,,,0.00,WeatherDisplay:10.36,2013-05-19 23:11:00,
2013-05-19 18:16:00,87.4,58.7,29.64,NE,40,11.5,11.5,38,0.00,,,0.00,WeatherDisplay:10.36,2013-05-19 23:16:00,
2013-05-19 18:21:00,87.3,58.6,29.61,ENE,65,9.2,9.2,38,0.00,,,0.00,WeatherDisplay:10.36,2013-05-19 23:21:00,
2013-05-19 18:26:00,87.3,57.8,29.61,NE,36,6.3,6.3,37,0.00,,,0.00,WeatherDisplay:10.36,2013-05-19 23:26:00,
2013-05-19 18:31:00,87.1,56.9,29.61,NE,41,8.1,8.1,36,0.00,,,0.00,WeatherDisplay:10.36,2013-05-19 23:31:00,
2013-05-19 18:36:00,87.1,57.7,29.61,NE,42,5.8,5.8,37,0.00,,,0.00,WeatherDisplay:10.36,2013-05-19 23:36:00,
2013-05-19 18:41:00,87.1,57.7,29.61,NE,40,6.3,6.3,37,0.00,,,0.00,WeatherDisplay:10.36,2013-05-19 23:41:00,
2013-05-19 18:46:00,86.9,57.5,29.61,NE,45,6.9,6.9,37,0.00,,,0.00,WeatherDisplay:10.36,2013-05-19 23:46:00,
2013-05-19 18:51:00,86.9,58.2,29.61,NE,43,7.4,7.4,38,0.00,,,0.00,WeatherDisplay:10.36,2013-05-19 23:51:00,
2013-05-19 18:56:00,86.7,58.1,29.61,ENE,69,6.9,6.9,38,0.00,,,0.00,WeatherDisplay:10.36,2013-05-19 23:56:00,
2013-05-19 19:01:00,86.5,58.6,29.61,NE,42,6.9,6.9,39,0.00,,,0.00,WeatherDisplay:10.36,2013-05-20 00:01:00,
2013-05-19 19:06:00,86.5,57.9,29.64,NE,46,6.9,6.9,38,0.00,,,0.00,WeatherDisplay:10.36,2013-05-20 00:06:00,
2013-05-19 19:11:00,86.4,57.8,29.64,NE,43,8.1,8.1,38,0.00,,,0.00,WeatherDisplay:10.36,2013-05-20 00:11:00,
2013-05-19 19:16:00,86.2,57.6,29.64,ENE,73,5.8,5.8,38,0.00,,,0.00,WeatherDisplay:10.36,2013-05-20 00:16:00,
2013-05-19 19:21:00,86.0,57.4,29.64,NE,45,6.9,6.9,38,0.00,,,0.00,WeatherDisplay:10.36,2013-05-20 00:21:00,
2013-05-19 19:26:00,85.8,57.3,29.64,NE,35,6.9,6.9,38,0.00,,,0.00,WeatherDisplay:10.36,2013-05-20 00:26:00,
2013-05-19 19:31:00,85.6,57.1,29.64,NE,42,6.3,6.3,38,0.00,,,0.00,WeatherDisplay:10.36,2013-05-20 00:31:00,
2013-05-19 19:36:00,85.5,56.2,29.64,NE,55,6.3,6.3,37,0.00,,,0.00,WeatherDisplay:10.36,2013-05-20 00:36:00,
2013-05-19 19:41:00,85.3,56.1,29.64,NE,42,4.9,4.9,37,0.00,,,0.00,WeatherDisplay:10.36,2013-05-20 00:41:00,
2013-05-19 19:46:00,85.1,55.9,29.64,NE,43,6.9,6.9,37,0.00,,,0.00,WeatherDisplay:10.36,2013-05-20 00:46:00,
2013-05-19 19:51:00,84.9,55.7,29.64,NE,43,5.8,5.8,37,0.00,,,0.00,WeatherDisplay:10.36,2013-05-20 00:51:00,
2013-05-19 19:56:00,84.7,54.8,29.64,NE,40,7.4,7.4,36,0.00,,,0.00,WeatherDisplay:10.36,2013-05-20 00:56:00,
2013-05-19 20:01:00,84.7,54.1,29.64,NE,42,8.1,8.1,35,0.00,,,0.00,WeatherDisplay:10.36,2013-05-20 01:01:00,
2013-05-19 20:06:00,84.6,53.9,29.64,NE,46,6.9,6.9,35,0.00,,,0.00,WeatherDisplay:10.36,2013-05-20 01:06:00,
2013-05-19 20:11:00,84.4,53.7,29.64,NE,50,11.5,11.5,35,0.00,,,0.00,WeatherDisplay:10.36,2013-05-20 01:11:00,
2013-05-19 20:16:00,84.4,53.7,29.64,ENE,69,6.9,6.9,35,0.00,,,0.00,WeatherDisplay:10.36,2013-05-20 01:16:00,
2013-05-19 20:21:00,84.2,54.4,29.64,NE,56,10.1,10.1,36,0.00,,,0.00,WeatherDisplay:10.36,2013-05-20 01:21:00,
2013-05-19 20:26:00,84.0,54.2,29.64,NE,44,6.3,6.3,36,0.00,,,0.00,WeatherDisplay:10.36,2013-05-20 01:26:00,
2013-05-19 20:31:00,83.8,54.8,29.64,NE,42,8.3,8.3,37,0.00,,,0.00,WeatherDisplay:10.36,2013-05-20 01:31:00,
2013-05-19 20:36:00,83.7,54.6,29.64,South,179,6.9,6.9,37,0.00,,,0.00,WeatherDisplay:10.36,2013-05-20 01:36:00,
2013-05-19 20:41:00,83.5,55.2,29.64,NE,42,10.1,10.1,38,0.00,,,0.00,WeatherDisplay:10.36,2013-05-20 01:41:00,
2013-05-19 20:46:00,83.3,55.0,29.64,NE,43,9.2,9.2,38,0.00,,,0.00,WeatherDisplay:10.36,2013-05-20 01:46:00,
2013-05-19 20:51:00,83.1,55.6,29.64,East,97,12.1,12.1,39,0.00,,,0.00,WeatherDisplay:10.36,2013-05-20 01:51:00,
2013-05-19 20:56:00,82.9,55.4,29.64,NE,44,6.3,6.3,39,0.00,,,0.00,WeatherDisplay:10.36,2013-05-20 01:56:00,
2013-05-19 21:01:00,82.8,56.0,29.64,NE,44,13.0,13.0,40,0.00,,,0.00,WeatherDisplay:10.36,2013-05-20 02:01:00,
2013-05-19 21:06:00,82.6,55.8,29.64,NE,49,9.2,9.2,40,0.00,,,0.00,WeatherDisplay:10.36,2013-05-20 02:06:00,
2013-05-19 21:11:00,82.6,55.8,29.64,East,97,11.2,11.2,40,0.00,,,0.00,WeatherDisplay:10.36,2013-05-20 02:11:00,
2013-05-19 21:16:00,82.4,55.7,29.64,NE,38,8.1,8.1,40,0.00,,,0.00,WeatherDisplay:10.36,2013-05-20 02:16:00,
2013-05-19 21:21:00,82.2,56.2,29.67,NE,43,11.5,11.5,41,0.00,,,0.00,WeatherDisplay:10.36,2013-05-20 02:21:00,
2013-05-19 21:26:00,82.0,56.0,29.67,East,82,11.2,11.2,41,0.00,,,0.00,WeatherDisplay:10.36,2013-05-20 02:26:00,
2013-05-19 21:31:00,81.9,55.9,29.67,ENE,62,9.2,9.2,41,0.00,,,0.00,WeatherDisplay:10.36,2013-05-20 02:31:00,
2013-05-19 21:36:00,81.7,56.4,29.67,NE,42,11.5,11.5,42,0.00,,,0.00,WeatherDisplay:10.36,2013-05-20 02:36:00,
2013-05-19 21:41:00,81.5,56.2,29.67,NE,39,9.2,9.2,42,0.00,,,0.00,WeatherDisplay:10.36,2013-05-20 02:41:00,
2013-05-19 21:46:00,81.5,56.8,29.67,ESE,106,9.2,9.2,43,0.00,,,0.00,WeatherDisplay:10.36,2013-05-20 02:46:00,
2013-05-19 21:51:00,81.3,56.0,29.67,East,83,10.4,10.4,42,0.00,,,0.00,WeatherDisplay:10.36,2013-05-20 02:51:00,
2013-05-19 21:56:00,81.3,56.7,29.67,NE,47,10.9,10.9,43,0.00,,,0.00,WeatherDisplay:10.36,2013-05-20 02:56:00,
2013-05-19 22:01:00,81.1,56.5,29.67,NE,41,8.3,8.3,43,0.00,,,0.00,WeatherDisplay:10.36,2013-05-20 03:01:00,
2013-05-19 22:06:00,81.1,56.5,29.70,NE,46,9.6,9.6,43,0.00,,,0.00,WeatherDisplay:10.36,2013-05-20 03:06:00,
2013-05-19 22:11:00,81.1,56.5,29.70,SE,128,11.5,11.5,43,0.00,,,0.00,WeatherDisplay:10.36,2013-05-20 03:11:00,
2013-05-19 22:16:00,81.0,56.4,29.70,NE,49,12.7,12.7,43,0.00,,,0.00,WeatherDisplay:10.36,2013-05-20 03:16:00,
2013-05-19 22:21:00,81.0,56.4,29.70,East,86,15.0,15.0,43,0.00,,,0.00,WeatherDisplay:10.36,2013-05-20 03:21:00,
2013-05-19 22:26:00,81.0,56.4,29.70,NE,53,12.7,12.7,43,0.00,,,0.00,WeatherDisplay:10.36,2013-05-20 03:26:00,
2013-05-19 22:31:00,81.0,56.4,29.70,NE,51,11.5,11.5,43,0.00,,,0.00,WeatherDisplay:10.36,2013-05-20 03:31:00,
2013-05-19 22:36:00,81.0,56.4,29.70,NE,43,10.4,10.4,43,0.00,,,0.00,WeatherDisplay:10.36,2013-05-20 03:36:00,
2013-05-19 22:41:00,80.8,56.2,29.70,NE,56,12.7,12.7,43,0.00,,,0.00,WeatherDisplay:10.36,2013-05-20 03:41:00,
2013-05-19 22:46:00,80.8,56.2,29.70,NE,44,9.2,9.2,43,0.00,,,0.00,WeatherDisplay:10.36,2013-05-20 03:46:00,
2013-05-19 22:51:00,80.6,56.0,29.70,NE,52,9.2,9.2,43,0.00,,,0.00,WeatherDisplay:10.36,2013-05-20 03:51:00,
2013-05-19 22:56:00,80.6,56.7,29.70,NE,56,13.0,13.0,44,0.00,,,0.00,WeatherDisplay:10.36,2013-05-20 03:56:00,
2013-05-19 23:01:00,80.4,58.9,29.70,NE,45,6.9,6.9,48,0.00,,,0.00,WeatherDisplay:10.36,2013-05-20 04:01:00,
2013-05-19 23:02:00,80.2,59.3,29.70,NE,41,7.4,7.4,49,0.00,,,0.00,WeatherDisplay:10.36,2013-05-20 04:02:00,
2013-05-19 23:04:00,79.9,60.1,29.70,NE,39,13.8,13.8,51,0.00,,,0.00,WeatherDisplay:10.36,2013-05-20 04:04:00,
2013-05-19 23:05:00,79.7,60.0,29.73,NE,50,7.4,7.4,51,0.00,,,0.00,WeatherDisplay:10.36,2013-05-20 04:05:00,
2013-05-19 23:10:00,79.2,60.6,29.73,East,93,6.7,6.7,53,0.00,,,0.00,WeatherDisplay:10.36,2013-05-20 04:10:00,
2013-05-19 23:11:00,79.0,60.4,29.73,NE,49,6.9,6.9,53,0.00,,,0.00,WeatherDisplay:10.36,2013-05-20 04:11:00,
2013-05-19 23:16:00,78.4,60.9,29.73,SSE,156,5.8,0.0,55,0.00,,,0.00,WeatherDisplay:10.36,2013-05-20 04:16:00,
2013-05-19 23:21:00,78.1,60.6,29.73,ENE,78,4.6,0.0,55,0.00,,,0.00,WeatherDisplay:10.36,2013-05-20 04:21:00,
2013-05-19 23:26:00,77.9,61.4,29.73,NE,49,3.6,0.0,57,0.00,,,0.00,WeatherDisplay:10.36,2013-05-20 04:26:00,
2013-05-19 23:31:00,77.5,60.6,29.73,East,85,0.0,0.0,56,0.00,,,0.00,WeatherDisplay:10.36,2013-05-20 04:31:00,
2013-05-19 23:36:00,77.4,60.4,29.70,ENE,77,0.0,0.0,56,0.00,,,0.00,WeatherDisplay:10.36,2013-05-20 04:36:00,
2013-05-19 23:41:00,77.0,60.1,29.70,ENE,73,0.0,0.0,56,0.00,,,0.00,WeatherDisplay:10.36,2013-05-20 04:41:00,
2013-05-19 23:46:00,76.6,59.8,29.70,ENE,70,0.0,0.0,56,0.00,,,0.00,WeatherDisplay:10.36,2013-05-20 04:46:00,
2013-05-19 23:51:00,76.3,59.4,29.70,ESE,108,0.0,0.0,56,0.00,,,0.00,WeatherDisplay:10.36,2013-05-20 04:51:00,
2013-05-19 23:56:00,75.6,58.8,29.70,NE,47,0.0,0.0,56,0.00,,,0.00,WeatherDisplay:10.36,2013-05-20 04:56:00,